Terminal Aerodrome Forecast
Issued by NWS

Home | Current Version | Previous Version | Text Only | Print | Product List | Glossary On
Versions: 1 2 3 4 5 6 7 8 9 10 11 12 13 14 15 16 17 18 19 20 21 22 23 24 25 26 27 28 29 30 31
571
FTUS41 KPBZ 181157
TAFZZV
TAF
KZZV 181157Z 1812/1912 30010G18KT P6SM OVC020
     FM181400 26008G16KT P6SM OVC008
     FM182000 27005KT P6SM OVC015
     FM191000 VRB05KT P6SM SCT250=

USA.gov is the U.S. government's official web portal to all federal, state and local government web resources and services.